Location: Landeleau
(48.2273°N, 3.7285°W)
Time: 14:05:53
(UTC+00:00)

BREEZE M DEB (TANK) - Pass Details

Date: 30 March 2020
Orbit: 313 x 13666 km, 49.6° (Epoch: 01 June)

Event Time Altitude Azimuth Distance (km) Brightness Sun altitude
Rises 21:17:05 0° 236° (WSW) 6,373 8.4 -24.3°
Reaches altitude 10° 21:22:58 10° 234° (SW) 3,822 7.2 -25.0°
Enters shadow 21:28:50 38° 211° (SSW) 1,180 4.3 -25.7°
